Tracking 30260 objects as of 14-Feb-2025
HD Live streaming from Space Station
objects crossing your sky now

CZ-4 DEB

Track CZ-4 DEB now!
10-day predictions


NORAD ID: 20855
Int'l Code: 1990-081T
Perigee: 851.6 km
Apogee: 887.9 km
Inclination: 98.8 °
Period: 102.2 minutes
Semi major axis: 7240 km
RCS: 7.4909 m2 (large)
Launch date: September 3, 1990
Source: People's Republic of China (PRC)
Launch site: Taiyaun Space Center, China (TSC)

Note: This is SATELLITE DEBRIS
Your satellite tracking list
Your tracking list is empty




NASA's NSSDC Master Catalog

Two Line Element Set (TLE):
1 20855U 90081T   25045.50021653  .00000116  00000-0  91267-4 0  9993
2 20855  98.7787  33.0208 0025002  73.1093  36.4886 14.09053116770892
Source of the keplerian elements: AFSPC